| time (UTC) | temp C | wind direction | speed KPH | gust KPH | rain 1hr cm | rain 24hr cm | rain mn cm | humidity % | barometer mb |
| 20260504231716 | 13 | 301 | 3.2 | 6.4 | 0.00 | 0.00 | 0.00 | 82 | 1002.4 |
| 20260504231213 | 13 | 267 | 4.8 | 11.3 | 0.00 | 0.00 | 0.00 | 81 | 1002.5 |
| 20260504230709 | 13 | 213 | 6.4 | 14.5 | 0.00 | 0.00 | 0.00 | 81 | 1002.5 |
| 20260504230208 | 13 | 210 | 6.4 | 9.7 | 0.00 | 0.00 | 0.00 | 80 | 1002.5 |
| 20260504225706 | 13 | 263 | 6.4 | 12.9 | 0.00 | 0.00 | 0.00 | 79 | 1002.1 |
| 20260504225202 | 13 | 270 | 3.2 | 9.7 | 0.00 | 0.00 | 0.00 | 80 | 1002.1 |
| 20260504224700 | 14 | 236 | 6.4 | 12.9 | 0.00 | 0.00 | 0.00 | 78 | 1002.0 |
| 20260504224156 | 14 | 210 | 0.0 | 11.3 | 0.00 | 0.00 | 0.00 | 78 | 1002.0 |
| 20260504223653 | 14 | 241 | 3.2 | 6.4 | 0.00 | 0.00 | 0.00 | 78 | 1001.7 |
| 20260504223148 | 15 | 265 | 6.4 | 9.7 | 0.00 | 0.00 | 0.00 | 77 | 1001.8 |
| 20260504222646 | 15 | 288 | 6.4 | 11.3 | 0.00 | 0.00 | 0.00 | 76 | 1001.7 |
| 20260504222142 | 15 | 270 | 1.6 | 11.3 | 0.00 | 0.00 | 0.00 | 76 | 1001.7 |
| 20260504221640 | 15 | 215 | 8.0 | 9.7 | 0.00 | 0.00 | 0.00 | 76 | 1001.5 |
| 20260504221137 | 15 | 231 | 8.0 | 14.5 | 0.00 | 0.00 | 0.00 | 75 | 1001.8 |
| 20260504220633 | 15 | 223 | 8.0 | 12.9 | 0.00 | 0.00 | 0.00 | 75 | 1001.5 |
| 20260504220131 | 15 | 251 | 3.2 | 17.7 | 0.00 | 0.00 | 0.00 | 75 | 1001.5 |
| 20260504215626 | 15 | 214 | 3.2 | 9.7 | 0.00 | 0.00 | 0.00 | 75 | 1001.3 |
| 20260504215119 | 15 | 256 | 8.0 | 11.3 | 0.00 | 0.00 | 0.00 | 75 | 1001.5 |
| 20260504214615 | 15 | 283 | 3.2 | 9.7 | 0.00 | 0.00 | 0.00 | 74 | 1001.3 |
| 20260504214111 | 15 | 255 | 1.6 | 11.3 | 0.00 | 0.00 | 0.00 | 75 | 1001.3 |
| 20260504213608 | 15 | 268 | 6.4 | 12.9 | 0.00 | 0.00 | 0.00 | 75 | 1001.5 |
| 20260504213105 | 15 | 264 | 8.0 | 12.9 | 0.00 | 0.00 | 0.00 | 75 | 1001.4 |
| 20260504212600 | 15 | 223 | 6.4 | 12.9 | 0.00 | 0.00 | 0.00 | 74 | 1001.3 |
| 20260504212058 | 15 | 186 | 1.6 | 12.9 | 0.00 | 0.00 | 0.00 | 73 | 1001.2 |
| 20260504211555 | 15 | 207 | 0.0 | 9.7 | 0.00 | 0.00 | 0.00 | 73 | 1001.2 |
| 20260504211051 | 15 | 262 | 8.0 | 11.3 | 0.00 | 0.00 | 0.00 | 74 | 1001.3 |
| 20260504210549 | 15 | 241 | 6.4 | 14.5 | 0.00 | 0.00 | 0.00 | 74 | 1001.0 |
| 20260504210045 | 14 | 266 | 4.8 | 19.3 | 0.00 | 0.00 | 0.00 | 74 | 1001.1 |
| 20260504205543 | 15 | 215 | 8.0 | 24.1 | 0.00 | 0.00 | 0.00 | 74 | 1001.2 |
| 20260504205041 | 15 | 225 | 9.7 | 11.3 | 0.00 | 0.00 | 0.00 | 74 | 1001.3 |
| 20260504204539 | 15 | 246 | 9.7 | 11.3 | 0.00 | 0.00 | 0.00 | 74 | 1001.2 |
| 20260504204038 | 15 | 210 | 9.7 | 12.9 | 0.00 | 0.00 | 0.00 | 73 | 1001.3 |
| 20260504203535 | 14 | 238 | 8.0 | 12.9 | 0.00 | 0.00 | 0.00 | 74 | 1001.0 |
| 20260504203032 | 13 | 239 | 11.3 | 14.5 | 0.00 | 0.00 | 0.00 | 75 | 1001.0 |
| 20260504202528 | 14 | 225 | 8.0 | 14.5 | 0.00 | 0.00 | 0.00 | 75 | 1001.2 |
| 20260504202025 | 14 | 257 | 9.7 | 16.1 | 0.00 | 0.00 | 0.00 | 76 | 1001.2 |
| 20260504201522 | 14 | 226 | 11.3 | 16.1 | 0.00 | 0.00 | 0.00 | 75 | 1001.2 |
| 20260504201020 | 14 | 229 | 11.3 | 16.1 | 0.00 | 0.00 | 0.00 | 75 | 1001.2 |
| 20260504200516 | 14 | 249 | 4.8 | 9.7 | 0.00 | 0.00 | 0.00 | 76 | 1001.3 |
| 20260504200013 | 14 | 220 | 4.8 | 6.4 | 0.00 | 0.00 | 0.00 | 75 | 1000.8 |
| 20260504195509 | 14 | 232 | 8.0 | 12.9 | 0.00 | 0.00 | 0.00 | 75 | 1001.1 |
| 20260504195006 | 14 | 214 | 6.4 | 12.9 | 0.00 | 0.00 | 0.00 | 76 | 1000.9 |
| 20260504194502 | 13 | 237 | 8.0 | 11.3 | 0.00 | 0.00 | 0.00 | 77 | 1001.0 |
| 20260504193957 | 14 | 270 | 4.8 | 6.4 | 0.00 | 0.00 | 0.00 | 77 | 1001.1 |
| 20260504193455 | 14 | 243 | 1.6 | 9.7 | 0.00 | 0.00 | 0.00 | 77 | 1000.8 |
| 20260504192954 | 13 | 257 | 3.2 | 12.9 | 0.00 | 0.00 | 0.00 | 76 | 1001.1 |
| 20260504192450 | 14 | 238 | 4.8 | 8.0 | 0.00 | 0.00 | 0.00 | 78 | 1001.2 |
| 20260504191949 | 13 | 222 | 11.3 | 12.9 | 0.00 | 0.00 | 0.00 | 77 | 1001.2 |
| 20260504191447 | 14 | 270 | 3.2 | 14.5 | 0.00 | 0.00 | 0.00 | 75 | 1001.4 |
| 20260504190942 | 14 | 231 | 14.5 | 14.5 | 0.00 | 0.00 | 0.00 | 75 | 1001.4 |
| 20260504190438 | 14 | 238 | 4.8 | 9.7 | 0.00 | 0.00 | 0.00 | 73 | 1001.3 |
| 20260504185935 | 14 | 248 | 8.0 | 14.5 | 0.00 | 0.00 | 0.00 | 72 | 1001.3 |
| 20260504185432 | 15 | 242 | 17.7 | 27.4 | 0.00 | 0.00 | 0.00 | 71 | 1001.2 |
| 20260504184928 | 15 | 239 | 8.0 | 22.5 | 0.00 | 0.00 | 0.00 | 67 | 1001.2 |
| 20260504184424 | 15 | 233 | 11.3 | 20.9 | 0.00 | 0.00 | 0.00 | 65 | 1001.0 |
| 20260504183920 | 15 | 222 | 11.3 | 19.3 | 0.00 | 0.00 | 0.00 | 62 | 1000.9 |
| 20260504183417 | 16 | 255 | 11.3 | 20.9 | 0.00 | 0.00 | 0.00 | 60 | 1000.9 |
| 20260504182915 | 16 | 227 | 4.8 | 25.7 | 0.00 | 0.00 | 0.00 | 57 | 1000.7 |
| 20260504182412 | 16 | 208 | 12.9 | 20.9 | 0.00 | 0.00 | 0.00 | 53 | 1000.4 |
| 20260504181909 | 16 | 270 | 3.2 | 14.5 | 0.00 | 0.00 | 0.00 | 50 | 1000.4 |
| 20260504181406 | 17 | 245 | 9.7 | 24.1 | 0.00 | 0.00 | 0.00 | 50 | 1000.3 |
| 20260504180905 | 17 | 242 | 9.7 | 11.3 | 0.00 | 0.00 | 0.00 | 48 | 1000.0 |
| 20260504180403 | 17 | 233 | 8.0 | 9.7 | 0.00 | 0.00 | 0.00 | 48 | 1000.2 |
| 20260504175901 | 17 | 227 | 4.8 | 19.3 | 0.00 | 0.00 | 0.00 | 49 | 999.9 |
| 20260504175357 | 18 | 238 | 9.7 | 16.1 | 0.00 | 0.00 | 0.00 | 46 | 1000.1 |
| 20260504174855 | 17 | 225 | 6.4 | 11.3 | 0.00 | 0.00 | 0.00 | 47 | 1000.0 |
| 20260504174353 | 18 | 267 | 4.8 | 12.9 | 0.00 | 0.00 | 0.00 | 46 | 1000.0 |
| 20260504173850 | 17 | 236 | 8.0 | 8.0 | 0.00 | 0.00 | 0.00 | 44 | 1000.1 |
| 20260504173346 | 16 | 254 | 3.2 | 11.3 | 0.00 | 0.00 | 0.00 | 46 | 999.9 |
| 20260504172843 | 17 | 253 | 3.2 | 8.0 | 0.00 | 0.00 | 0.00 | 46 | 999.9 |
| 20260504172340 | 17 | 259 | 3.2 | 6.4 | 0.00 | 0.00 | 0.00 | 43 | 1000.0 |
| 20260504171835 | 17 | 274 | 6.4 | 11.3 | 0.00 | 0.00 | 0.00 | 44 | 1000.1 |
| 20260504171333 | 17 | 301 | 14.5 | 14.5 | 0.00 | 0.00 | 0.00 | 42 | 1000.3 |
| 20260504170830 | 17 | 230 | 8.0 | 16.1 | 0.00 | 0.00 | 0.00 | 44 | 1000.4 |
| 20260504170327 | 18 | 254 | 0.0 | 16.1 | 0.00 | 0.00 | 0.00 | 43 | 1000.4 |
| 20260504160245 | 16 | 286 | 1.6 | 9.7 | 0.00 | 0.00 | 0.00 | 47 | 1001.0 |
| 20260504150711 | 14 | 270 | 4.8 | 24.1 | 0.00 | 0.00 | 0.00 | 51 | 1001.6 |
| 20260504150207 | 14 | 270 | 12.9 | 19.3 | 0.00 | 0.00 | 0.00 | 49 | 1001.7 |
| 20260504141137 | 13 | 234 | 4.8 | 17.7 | 0.00 | 0.00 | 0.00 | 52 | 1002.0 |
| 20260504140633 | 12 | 234 | 8.0 | 27.4 | 0.00 | 0.00 | 0.00 | 59 | 1002.0 |
| 20260504140129 | 12 | 270 | 3.2 | 11.3 | 0.00 | 0.00 | 0.00 | 56 | 1001.7 |
| 20260504130557 | 10 | 270 | 0.0 | 9.7 | 0.00 | 0.00 | 0.00 | 72 | 1001.9 |
| 20260504110445 | 7 | 253 | 4.8 | 9.7 | 0.00 | 0.00 | 0.00 | 86 | 1001.2 |
| 20260504100401 | 6 | 240 | 3.2 | 6.4 | 0.00 | 0.00 | 0.00 | 93 | 1000.5 |
| 20260504081755 | 6 | 255 | 3.2 | 12.9 | 0.00 | 0.00 | 0.00 | 93 | 999.2 |
| 20260504081251 | 6 | 228 | 3.2 | 9.7 | 0.00 | 0.00 | 0.00 | 94 | 999.0 |
| 20260504080747 | 6 | 147 | 3.2 | 11.3 | 0.00 | 0.00 | 0.00 | 94 | 998.8 |
| 20260504080244 | 6 | 229 | 4.8 | 14.5 | 0.00 | 0.00 | 0.00 | 93 | 998.8 |
| 20260504070212 | 7 | 289 | 3.2 | 6.4 | 0.00 | 0.00 | 0.00 | 94 | 998.1 |
| 20260504060132 | 8 | 237 | 0.0 | 8.0 | 0.00 | 0.00 | 0.00 | 96 | 997.7 |
| 20260504050600 | 8 | 278 | 0.0 | 8.0 | 0.00 | 0.00 | 0.00 | 99 | 997.7 |
| 20260504045554 | 8 | 0 | 1.6 | 4.8 | 0.00 | 0.00 | 0.00 | 99 | 997.7 |
| 20260504045049 | 8 | 283 | 0.0 | 9.7 | 0.00 | 0.00 | 0.00 | 99 | 997.5 |
| 20260504044547 | 8 | 270 | 6.4 | 12.9 | 0.00 | 0.00 | 0.00 | 99 | 997.3 |
| 20260504044044 | 8 | 270 | 1.6 | 6.4 | 0.00 | 0.00 | 0.00 | 99 | 997.5 |
| 20260504043541 | 8 | 282 | 9.7 | 14.5 | 0.00 | 0.00 | 0.00 | 99 | 997.4 |
| 20260504043038 | 8 | 308 | 4.8 | 9.7 | 0.00 | 0.00 | 0.00 | 99 | 997.6 |
| 20260504042535 | 8 | 297 | 4.8 | 12.9 | 0.00 | 0.00 | 0.00 | 99 | 997.4 |
| 20260504042032 | 8 | 289 | 1.6 | 9.7 | 0.00 | 0.00 | 0.00 | 99 | 997.4 |
| 20260504041528 | 8 | 270 | 3.2 | 8.0 | 0.00 | 0.00 | 0.00 | 99 | 997.4 |
| 20260504041024 | 8 | 285 | 1.6 | 8.0 | 0.05 | 0.00 | 0.00 | 99 | 997.3 |
| 20260504040522 | 8 | 264 | 3.2 | 12.9 | 0.05 | 0.00 | 0.00 | 99 | 997.1 |
| 20260504040018 | 8 | 300 | 1.6 | 9.7 | 0.00 | 0.00 | 0.00 | 99 | 997.3 |
| 20260504035515 | 8 | 248 | 0.0 | 4.8 | 0.00 | 0.00 | 0.00 | 99 | 997.2 |
| 20260504035011 | 8 | 235 | 0.0 | 8.0 | 0.00 | 0.00 | 0.00 | 99 | 997.2 |
| 20260504034509 | 8 | 265 | 4.8 | 6.4 | 0.00 | 0.00 | 0.00 | 99 | 997.2 |
| 20260504034006 | 8 | 258 | 1.6 | 9.7 | 0.00 | 0.00 | 0.00 | 99 | 997.1 |
| 20260504033504 | 8 | 281 | 3.2 | 8.0 | 0.00 | 0.00 | 0.00 | 99 | 997.1 |
| 20260504033001 | 8 | 273 | 4.8 | 4.8 | 0.00 | 0.00 | 0.00 | 99 | 997.1 |
| 20260504032458 | 8 | 322 | 4.8 | 11.3 | 0.00 | 0.00 | 0.00 | 99 | 996.7 |
| 20260504031954 | 8 | 225 | 4.8 | 8.0 | 0.00 | 0.00 | 0.00 | 99 | 996.7 |
| 20260504031451 | 8 | 264 | 4.8 | 8.0 | 0.00 | 0.00 | 0.00 | 99 | 996.9 |
| 20260504030948 | 8 | 237 | 4.8 | 8.0 | 0.00 | 0.00 | 0.00 | 99 | 996.8 |
| 20260504030445 | 8 | 270 | 3.2 | 8.0 | 0.00 | 0.00 | 0.00 | 99 | 996.7 |
| 20260504025941 | 8 | 260 | 0.0 | 6.4 | 0.00 | 0.00 | 0.00 | 99 | 996.8 |
| 20260504025438 | 8 | 256 | 6.4 | 11.3 | 0.00 | 0.00 | 0.00 | 99 | 996.8 |
| 20260504024935 | 8 | 263 | 4.8 | 8.0 | 0.00 | 0.00 | 0.00 | 99 | 996.8 |
| 20260504024432 | 8 | 273 | 4.8 | 4.8 | 0.00 | 0.00 | 0.00 | 99 | 997.0 |
| 20260504023929 | 8 | 17 | 0.0 | 6.4 | 0.00 | 0.00 | 0.00 | 99 | 996.8 |
| 20260504023425 | 8 | 266 | 3.2 | 8.0 | 0.00 | 0.00 | 0.00 | 99 | 996.7 |
| 20260504022921 | 7 | 285 | 0.0 | 11.3 | 0.00 | 2.90 | 2.90 | 99 | 997.1 |
| 20260504022418 | 8 | 261 | 4.8 | 6.4 | 0.00 | 2.90 | 2.90 | 99 | 996.8 |
| 20260504021914 | 7 | 319 | 3.2 | 11.3 | 0.00 | 2.90 | 2.90 | 99 | 996.8 |
| 20260504021412 | 8 | 249 | 4.8 | 6.4 | 0.00 | 2.90 | 2.90 | 99 | 996.8 |
| 20260504020909 | 7 | 270 | 1.6 | 9.7 | 0.00 | 2.90 | 2.90 | 99 | 996.6 |
| 20260504020405 | 8 | 270 | 6.4 | 8.0 | 0.00 | 2.90 | 2.90 | 99 | 996.6 |
| 20260504015902 | 8 | 290 | 3.2 | 4.8 | 0.00 | 2.90 | 2.90 | 99 | 996.5 |
| 20260504015358 | 8 | 150 | 6.4 | 8.0 | 0.00 | 2.90 | 2.90 | 99 | 996.8 |
| 20260504014854 | 8 | 261 | 3.2 | 6.4 | 0.00 | 2.90 | 2.90 | 99 | 996.8 |
| 20260504014350 | 8 | 286 | 0.0 | 6.4 | 0.00 | 2.90 | 2.90 | 99 | 996.7 |
| 20260504013848 | 8 | 120 | 0.0 | 4.8 | 0.00 | 2.90 | 2.90 | 99 | 996.7 |
| 20260504013345 | 8 | 333 | 0.0 | 6.4 | 0.00 | 2.90 | 2.90 | 99 | 996.8 |
| 20260504012842 | 8 | 76 | 4.8 | 8.0 | 0.00 | 2.90 | 2.90 | 99 | 996.6 |
| 20260504012340 | 8 | 0 | 0.0 | 6.4 | 0.00 | 2.90 | 2.90 | 99 | 996.5 |
| 20260504011837 | 8 | 200 | 0.0 | 8.0 | 0.00 | 2.90 | 2.90 | 99 | 996.8 |
| 20260504011333 | 8 | 246 | 3.2 | 9.7 | 0.05 | 2.90 | 2.90 | 99 | 996.4 |
| 20260504010830 | 8 | 180 | 3.2 | 6.4 | 0.05 | 2.90 | 2.90 | 99 | 996.4 |
| 20260504010325 | 8 | 70 | 3.2 | 11.3 | 0.00 | 2.87 | 2.87 | 99 | 996.5 |
| 20260504005822 | 8 | 244 | 0.0 | 4.8 | 0.05 | 2.87 | 2.87 | 99 | 996.4 |
| 20260504005319 | 8 | 185 | 0.0 | 6.4 | 0.13 | 2.87 | 2.87 | 99 | 996.4 |
| 20260504004816 | 8 | 192 | 3.2 | 8.0 | 0.13 | 2.87 | 2.87 | 99 | 996.2 |
| 20260504004314 | 8 | 252 | 3.2 | 8.0 | 0.05 | 2.87 | 2.87 | 99 | 996.3 |
| 20260504003810 | 8 | 276 | 3.2 | 11.3 | 0.05 | 2.84 | 2.84 | 99 | 996.4 |
| 20260504003307 | 8 | 75 | 4.8 | 6.4 | 0.05 | 2.84 | 2.84 | 99 | 996.2 |
| 20260504002803 | 8 | 108 | 8.0 | 16.1 | 0.05 | 2.84 | 2.84 | 99 | 996.2 |
| 20260504002301 | 8 | 12 | 3.2 | 12.9 | 0.05 | 2.82 | 2.82 | 99 | 996.3 |
| 20260504001758 | 8 | 152 | 4.8 | 14.5 | 0.05 | 2.82 | 2.82 | 99 | 996.3 |
| 20260504001255 | 8 | 11 | 1.6 | 11.3 | 0.05 | 2.82 | 2.82 | 99 | 996.1 |
| 20260504000752 | 8 | 270 | 3.2 | 14.5 | 0.13 | 2.82 | 2.82 | 99 | 996.0 |
| 20260504000249 | 8 | 33 | 4.8 | 24.1 | 0.05 | 2.82 | 2.82 | 99 | 996.3 |
| 20260503235747 | 8 | 354 | 4.8 | 17.7 | 0.05 | 2.79 | 2.79 | 99 | 996.1 |
| 20260503235244 | 8 | 2 | 6.4 | 24.1 | 0.05 | 2.79 | 2.79 | 99 | 996.1 |
| 20260503234741 | 8 | 251 | 3.2 | 19.3 | 0.05 | 2.79 | 2.79 | 99 | 996.0 |
| 20260503234239 | 8 | 239 | 3.2 | 14.5 | 0.13 | 2.79 | 2.79 | 99 | 996.2 |
| 20260503233736 | 8 | 202 | 3.2 | 16.1 | 0.13 | 2.77 | 2.77 | 99 | 996.2 |
| 20260503233232 | 8 | 37 | 8.0 | 17.7 | 0.13 | 2.77 | 2.77 | 99 | 996.0 |
| 20260503232729 | 8 | 17 | 11.3 | 24.1 | 0.13 | 2.77 | 2.77 | 99 | 996.2 |
| 20260503232226 | 8 | 29 | 14.5 | 17.7 | 0.18 | 2.74 | 2.74 | 99 | 996.0 |